Minneapolis Flying Cloud, MN

12:10 PM CDT on June 26, 2017 (GMT -0500)
Flying Cloud

Weather History for KFCM - September, 2012

Change the Weather History Date:

Thursday, September 6, 2012

  Actual Average Record
Temperature  
Mean Temperature 66 °F -  
Max Temperature 82 °F 77 °F 91 °F (2003)
Min Temperature 52 °F 56 °F 46 °F (2008)
Cooling Degree Days 1    
Growing Degree Days 16 (Base 50)    
Moisture  
Dew Point 50 °F    
Average Humidity 57    
Maximum Humidity 86    
Minimum Humidity 28    
Precipitation  
Precipitation 0.00 in - - ()
Sea Level Pressure  
Sea Level Pressure 29.91 in    
Wind  
Wind Speed 3 mph (South)    
Max Wind Speed 9 mph    
Max Gust Speed -    
Visibility 10 miles    
Events Rain    
Averages and records for this station are not official NWS values.
T = Trace of Precipitation, MM = Missing Value Source: NWS Daily Summary

Daily Weather History Graph

Daily Weather History Graph

Search for Another Location

Airport or City:

Trip Planner

Search our weather history database for the weather conditions in past years. The results will help you decide how hot, cold, wet, or windy it might be!

Date:

Astronomy

Sep. 06, 2012 Rise Set
Actual Time 6:42 AM CDT 7:40 PM CDT
Civil Twilight 6:12 AM CDT 8:10 PM CDT
Nautical Twilight 5:37 AM CDT 8:45 PM CDT
Astronomical Twilight 4:59 AM CDT 9:23 PM CDT
Moon 10:33 PM CDT (9/6) 1:00 PM CDT (9/6)
Length of Visible Light 13h 57m
Length of Day
12h 57m
Waning Gibbous, 67% of the Moon is Illuminated
Sep 6
Waning Gibbous
Sep 8
Last Quarter
Sep 15
New
Sep 22
First Quarter
Sep 29
Full

Hourly Weather History & Observations

Time (CDT) Temp. Dew Point Humidity Pressure Visibility Wind Dir Wind Speed Gust Speed Precip Events Conditions
12:53 AM 61.0 °F 48.9 °F 64% 29.91 in 10.0 mi Calm Calm - N/A   Clear
1:53 AM 60.1 °F 48.9 °F 67% 29.91 in 10.0 mi Calm Calm - N/A   Clear
2:53 AM 57.0 °F 48.9 °F 74% 29.92 in 10.0 mi WSW 3.5 mph - N/A   Clear
3:53 AM 55.9 °F 48.9 °F 77% 29.92 in 10.0 mi Calm Calm - N/A   Clear
4:53 AM 55.0 °F 48.9 °F 80% 29.93 in 10.0 mi Calm Calm - N/A   Clear
5:53 AM 53.1 °F 48.0 °F 83% 29.94 in 10.0 mi SSW 5.8 mph - N/A   Clear
6:53 AM 52.0 °F 48.0 °F 86% 29.96 in 10.0 mi Calm Calm - N/A   Clear
7:53 AM 55.0 °F 48.9 °F 80% 29.97 in 10.0 mi SW 4.6 mph - N/A   Clear
8:53 AM 60.1 °F 48.9 °F 67% 29.97 in 10.0 mi SW 6.9 mph - N/A   Clear
9:53 AM 68.0 °F 48.9 °F 50% 29.97 in 10.0 mi WNW 4.6 mph - N/A   Clear
10:53 AM 73.0 °F 52.0 °F 48% 29.96 in 10.0 mi South 6.9 mph - N/A   Clear
11:53 AM 75.9 °F 50.0 °F 40% 29.95 in 10.0 mi South 5.8 mph - N/A   Clear
12:53 PM 78.1 °F 46.9 °F 33% 29.93 in 10.0 mi SW 8.1 mph - N/A   Clear
1:53 PM 79.0 °F 44.1 °F 29% 29.91 in 10.0 mi Variable 5.8 mph - N/A   Clear
2:53 PM 80.1 °F 44.1 °F 28% 29.87 in 10.0 mi SSW 6.9 mph - N/A   Clear
3:53 PM 79.0 °F 46.0 °F 31% 29.88 in 10.0 mi SSE 6.9 mph - N/A   Partly Cloudy
4:53 PM 77.0 °F 46.9 °F 34% 29.88 in 10.0 mi Calm Calm - N/A   Scattered Clouds
5:53 PM 75.0 °F 50.0 °F 41% 29.89 in 5.0 mi ESE 4.6 mph - 0.00 in Rain Light Rain
6:53 PM 72.0 °F 57.0 °F 59% 29.89 in 10.0 mi Calm Calm - 0.00 in Rain Light Rain
7:53 PM 69.1 °F 55.0 °F 61% 29.89 in 10.0 mi ENE 8.1 mph - 0.00 in   Overcast
8:53 PM 69.1 °F 54.0 °F 58% 29.88 in 10.0 mi ENE 8.1 mph - N/A   Overcast
9:53 PM 68.0 °F 54.0 °F 61% 29.88 in 10.0 mi East 3.5 mph - N/A   Overcast
10:53 PM 68.0 °F 54.0 °F 61% 29.87 in 10.0 mi NE 5.8 mph - N/A   Overcast
11:53 PM 66.9 °F 55.0 °F 66% 29.87 in 10.0 mi NE 9.2 mph - 0.00 in   Overcast